EW2435 Weather Reports


time (UTC)temp
F
wind
direction
speed
knots
gust
knots
rain 1hr
in
rain 24hr
in
rain mn
in
humidity
%
barometer
mb
20260504201850 79 122 0.0 0.0 0.00 0.00 0.00 33 1017.9
20260504201352 79 122 0.0 0.0 0.00 0.00 0.00 33 1018.1
20260504200851 79 122 0.0 0.0 0.00 0.00 0.00 33 1018.1
20260504200344 79 122 0.0 0.9 0.00 0.00 0.00 33 1018.2
20260504195832 79 122 0.0 0.9 0.00 0.00 0.00 32 1018.1
20260504195328 80 119 0.0 0.9 0.00 0.00 0.00 35 1018.2
20260504194827 80 119 0.0 0.9 0.00 0.00 0.00 34 1018.3
20260504194328 80 169 0.0 0.9 0.00 0.00 0.00 34 1018.3
20260504194046 80 136 0.0 1.7 0.00 0.00 0.00 34 1018.3
20260504193327 80 177 0.0 1.7 0.00 0.00 0.00 35 1018.3
20260504193048 80 178 0.0 0.0 0.00 0.00 0.00 37 1018.4
20260504192320 80 178 0.0 2.6 0.00 0.00 0.00 35 1018.4
20260504191818 79 178 0.0 2.6 0.00 0.00 0.00 39 1018.5
20260504191314 79 147 0.0 0.0 0.00 0.00 0.00 37 1018.6
20260504190816 79 147 0.0 0.9 0.00 0.00 0.00 35 1018.7
20260504190306 79 147 0.0 2.6 0.00 0.00 0.00 33 1018.7
20260504185802 79 140 0.0 2.6 0.00 0.00 0.00 35 1018.9
20260504185256 79 139 0.0 2.6 0.00 0.00 0.00 38 1018.9
20260504184759 78 127 0.0 0.0 0.00 0.00 0.00 36 1018.9
20260504184257 78 127 0.0 0.0 0.00 0.00 0.00 36 1019.0
20260504183756 78 127 0.0 0.0 0.00 0.00 0.00 34 1019.1
20260504183254 78 127 0.0 0.0 0.00 0.00 0.00 35 1019.1
20260504182755 78 127 0.0 0.0 0.00 0.00 0.00 36 1019.2
20260504182256 78 127 0.0 1.7 0.00 0.00 0.00 34 1019.2
20260504181743 78 127 0.0 2.6 0.00 0.00 0.00 35 1019.4
20260504181235 78 70 0.0 2.6 0.00 0.00 0.00 36 1019.3
20260504180727 77 111 0.0 0.9 0.00 0.00 0.00 40 1019.3
20260504180445 77 111 0.0 6.1 0.00 0.00 0.00 37 1019.4
20260504175721 78 132 0.9 6.1 0.00 0.00 0.00 36 1019.4
20260504175223 78 128 0.0 0.0 0.00 0.00 0.00 36 1019.5
20260504174720 77 128 0.0 7.0 0.00 0.00 0.00 38 1019.6
20260504174220 77 128 0.0 7.0 0.00 0.00 0.00 40 1019.6
20260504173724 77 121 0.0 0.9 0.00 0.00 0.00 39 1019.6
20260504173218 76 82 0.0 0.9 0.00 0.00 0.00 39 1019.6
20260504172933 76 97 0.0 0.0 0.00 0.00 0.00 42 1019.7
20260504172215 75 97 0.0 0.0 0.00 0.00 0.00 39 1019.9
20260504171708 76 97 0.0 0.9 0.00 0.00 0.00 40 1019.9
20260504171205 76 97 0.0 0.9 0.00 0.00 0.00 39 1020.0
20260504170707 76 138 0.0 0.9 0.00 0.00 0.00 40 1020.2
20260504170220 76 148 0.0 0.9 0.00 0.00 0.00 40 1020.3
20260504151118 70 140 0.0 0.9 0.00 0.00 0.00 48 1021.4
20260504150618 71 140 0.0 1.7 0.00 0.00 0.00 50 1021.5
20260504150118 70 139 0.0 1.7 0.00 0.00 0.00 47 1021.5
20260504141105 65 142 0.0 1.7 0.00 0.00 0.00 63 1021.6
20260504140602 64 107 0.0 0.0 0.00 0.00 0.00 65 1021.6
20260504140108 62 107 0.0 0.0 0.00 0.00 0.00 71 1021.6
20260504130547 52 107 0.0 0.0 0.00 0.00 0.00 96 1021.6
20260504110432 41 107 0.0 0.0 0.00 0.00 0.00 94 1021.3
20260504100409 42 107 0.0 0.0 0.00 0.00 0.00 94 1020.9
20260504100133 42 107 0.0 0.0 0.00 0.00 0.00 94 1021.0
20260504081306 43 107 0.0 0.0 0.00 0.00 0.00 93 1021.1
20260504080805 43 107 0.0 0.0 0.00 0.00 0.00 93 1021.0
20260504080306 43 107 0.0 0.0 0.00 0.00 0.00 93 1021.0
20260504070251 44 107 0.0 0.0 0.00 0.00 0.00 92 1021.4
20260504060202 46 107 0.0 0.0 0.00 0.00 0.00 91 1021.2
20260504050624 47 107 0.0 0.0 0.00 0.00 0.00 89 1021.6
20260504050121 47 107 0.0 0.0 0.00 0.00 0.00 89 1021.8
20260504045606 47 107 0.0 0.0 0.00 0.00 0.00 89 1021.8
20260504045332 47 107 0.0 0.0 0.00 0.00 0.00 88 1021.8
20260504044604 47 107 0.0 0.0 0.00 0.00 0.00 88 1021.8
20260504044059 48 107 0.0 0.0 0.00 0.00 0.00 87 1021.8
20260504043558 48 107 0.0 0.0 0.00 0.00 0.00 87 1021.8
20260504043102 48 107 0.0 0.0 0.00 0.00 0.00 88 1021.9
20260504042558 48 107 0.0 0.0 0.00 0.00 0.00 87 1021.9
20260504042100 48 107 0.0 0.0 0.00 0.00 0.00 87 1021.9
20260504041556 48 107 0.0 0.0 0.00 0.00 0.00 87 1021.8
20260504041309 48 107 0.0 0.0 0.00 0.00 0.00 86 1021.8
20260504040546 49 107 0.0 0.0 0.00 0.00 0.00 86 1021.9
20260504040059 49 107 0.0 0.0 0.00 0.00 0.00 86 1021.8
20260504035535 49 107 0.0 0.0 0.00 0.00 0.00 85 1021.8
20260504035035 49 107 0.0 0.0 0.00 0.00 0.00 85 1021.8
20260504034537 49 107 0.0 0.0 0.00 0.00 0.00 85 1021.9
20260504034032 49 107 0.0 0.0 0.00 0.00 0.00 84 1021.8
20260504033750 49 107 0.0 0.0 0.00 0.00 0.00 84 1021.8
20260504033034 50 107 0.0 0.0 0.00 0.00 0.00 84 1021.9
20260504032746 50 107 0.0 0.0 0.00 0.00 0.00 83 1021.8
20260504032026 50 107 0.0 0.0 0.00 0.00 0.00 83 1021.8
20260504031542 50 107 0.0 0.0 0.00 0.00 0.00 83 1021.8
20260504031022 51 107 0.0 0.0 0.00 0.00 0.00 82 1021.8
20260504030459 51 107 0.0 0.0 0.00 0.00 0.00 82 1021.6
20260504025955 51 107 0.0 0.0 0.00 0.00 0.00 81 1021.6
20260504025453 51 107 0.0 0.0 0.00 0.00 0.00 80 1021.6
20260504024953 51 107 0.0 0.0 0.00 0.00 0.00 80 1021.6
20260504024942 51 107 0.0 0.0 0.00 0.00 0.00 79 1021.8
20260504023954 52 107 0.0 0.0 0.00 0.00 0.00 79 1021.6
20260504023451 52 107 0.0 0.0 0.00 0.00 0.00 78 1021.4
20260504022946 52 107 0.0 0.0 0.00 0.00 0.00 77 1021.4
20260504022447 53 107 0.0 0.0 0.00 0.00 0.00 77 1021.3
20260504021946 53 107 0.0 0.0 0.00 0.00 0.00 76 1021.3
20260504021436 53 107 0.0 0.0 0.00 0.00 0.00 75 1021.2
20260504020936 53 107 0.0 0.0 0.00 0.00 0.00 75 1021.1
20260504020652 53 107 0.0 0.0 0.00 0.00 0.00 74 1020.9
20260504020154 54 107 0.0 0.0 0.00 0.00 0.00 74 1021.0
20260504015432 54 107 0.0 0.0 0.00 0.00 0.00 72 1020.9
20260504014932 54 107 0.0 0.0 0.00 0.00 0.00 72 1020.8
20260504014422 55 107 0.0 0.0 0.00 0.00 0.00 71 1020.9
20260504013922 55 107 0.0 0.0 0.00 0.00 0.00 71 1020.8
20260504013416 55 107 0.0 0.0 0.00 0.00 0.00 69 1020.7
20260504012916 56 107 0.0 0.0 0.00 0.00 0.00 69 1020.6
20260504012414 56 107 0.0 0.0 0.00 0.00 0.00 68 1020.6
20260504011913 57 107 0.0 0.0 0.00 0.00 0.00 67 1020.5
20260504011428 57 107 0.0 0.0 0.00 0.00 0.00 66 1020.4
20260504010852 58 107 0.0 0.0 0.00 0.00 0.00 65 1020.4
20260504010618 58 107 0.0 0.0 0.00 0.00 0.00 64 1020.4
20260504010114 59 107 0.0 0.0 0.00 0.00 0.00 64 1020.4
20260504005829 59 107 0.0 0.0 0.00 0.00 0.00 63 1020.4
20260504004853 60 107 0.0 0.0 0.00 0.00 0.00 60 1020.2
20260504004351 60 107 0.0 0.0 0.00 0.00 0.00 59 1020.2
20260504003851 61 107 0.0 0.0 0.00 0.00 0.00 58 1020.2
20260504003447 62 107 0.0 0.0 0.00 0.00 0.00 57 1020.2
20260504002349 63 107 0.0 0.0 0.00 0.00 0.00 54 1020.2
20260504001850 63 107 0.0 0.0 0.00 0.00 0.00 54 1020.1
20260504001349 64 107 0.0 0.0 0.00 0.00 0.00 53 1020.1
20260504001108 65 107 0.0 0.0 0.00 0.00 0.00 51 1020.1
20260504000346 65 107 0.0 0.0 0.00 0.00 0.00 50 1020.0
20260504000334 66 107 0.0 0.0 0.00 0.00 0.00 44 1020.0
20260503235344 66 107 0.0 0.0 0.00 0.00 0.00 41 1020.0
20260503234847 67 107 0.0 0.0 0.00 0.00 0.00 40 1019.9
20260503234345 67 107 0.0 0.0 0.00 0.00 0.00 39 1020.0
20260503233833 67 107 0.0 0.0 0.00 0.00 0.00 38 1020.0
20260503233332 67 107 0.0 0.0 0.00 0.00 0.00 38 1019.9
20260503232833 68 107 0.0 0.0 0.00 0.00 0.00 37 1019.9
20260503232316 68 107 0.0 0.0 0.00 0.00 0.00 38 1019.9
20260503231816 68 107 0.0 0.0 0.00 0.00 0.00 37 1019.9
20260503231315 68 107 0.0 0.0 0.00 0.00 0.00 37 1020.0
20260503231042 68 107 0.0 0.0 0.00 0.00 0.00 37 1019.9
20260503230316 69 107 0.0 0.0 0.00 0.00 0.00 39 1020.0
20260503225814 69 107 0.0 0.0 0.00 0.00 0.00 39 1020.0
20260503225535 69 107 0.0 0.0 0.00 0.00 0.00 40 1020.0
20260503224814 69 107 0.0 0.0 0.00 0.00 0.00 37 1020.0
20260503224308 69 107 0.0 0.9 0.00 0.00 0.00 35 1019.9
20260503223808 69 107 0.0 0.9 0.00 0.00 0.00 36 1019.9
20260503223308 69 48 0.0 0.9 0.00 0.00 0.00 36 1020.0
20260503222805 69 48 0.0 0.9 0.00 0.00 0.00 35 1020.0
20260503222252 70 177 0.0 0.0 0.00 0.00 0.00 35 1020.0
20260503221745 70 177 0.0 0.0 0.00 0.00 0.00 33 1020.0
20260503221245 70 177 0.0 0.9 0.00 0.00 0.00 36 1020.1
20260503220745 70 177 0.0 0.9 0.00 0.00 0.00 34 1020.1
20260503220243 70 118 0.0 0.9 0.00 0.00 0.00 35 1020.1
20260503220010 70 136 0.0 0.0 0.00 0.00 0.00 36 1020.2
20260503215245 70 136 0.0 0.0 0.00 0.00 0.00 34 1020.0
20260503214736 70 136 0.0 0.0 0.00 0.00 0.00 35 1020.1
20260503214231 71 136 0.0 0.0 0.00 0.00 0.00 35 1020.1
20260503213733 71 136 0.0 0.0 0.00 0.00 0.00 33 1020.2
20260503213230 71 136 0.0 2.6 0.00 0.00 0.00 34 1020.2
20260503212730 71 136 0.0 2.6 0.00 0.00 0.00 38 1020.3
20260503212232 71 64 0.0 0.0 0.00 0.00 0.00 35 1020.2
20260503211719 71 64 0.0 0.0 0.00 0.00 0.00 34 1020.2
20260503211214 71 64 0.0 0.0 0.00 0.00 0.00 34 1020.3
20260503210713 71 64 0.0 0.9 0.00 0.00 0.00 34 1020.3
20260503210216 72 64 0.0 0.9 0.00 0.00 0.00 35 1020.4
20260503205711 72 90 0.0 0.9 0.00 0.00 0.00 35 1020.3
20260503205212 72 90 0.0 0.9 0.00 0.00 0.00 35 1020.4
20260503204933 72 158 0.0 0.0 0.00 0.00 0.00 36 1020.4
20260503204211 72 158 0.0 0.0 0.00 0.00 0.00 34 1020.5
20260503203711 72 158 0.0 0.0 0.00 0.00 0.00 35 1020.5
20260503203209 72 158 0.0 2.6 0.00 0.00 0.00 37 1020.6
20260503202711 72 158 0.0 3.5 0.00 0.00 0.00 36 1020.5